Location: El Carrer d�Abaix
(41.5797°N, 2.1791°E)
Time: 23:13:30
(UTC+00:00)

Cosmos 1900 - Pass Details

Date: 06 June 2020
Orbit: 684 x 738 km, 66.1° (Epoch: 05 July)

Event Time Altitude Azimuth Distance (km) Brightness Sun altitude
Rises 20:21:04 0° 330° (NNW) 3,131 9.3 -9.5°
Reaches altitude 10° 20:23:25 10° 332° (NNW) 2,215 8.2 -9.8°
Maximum altitude 20:28:29 77° 58° (ENE) 752 4.4 -10.5°
Enters shadow 20:32:47 15° 144° (SE) 1,927 5.9 -11.1°
